When you browse on this site, cookies collect data to enhance your experience and personalize the content and advertising you see.
Visit our Privacy Policy to learn more. By continuing to use the site, you agree to this use of cookies and data.
  • In Hungary
  • List of Countries
  • For 7 days
  • Water Temperature
  • Weather Map
  • News
  • Weather Widgets
  • user-avatar
    Login

    Hourly Weather Smolan

    Today, 20 February, Thursday

    Time Temperature Precipitation Wind Pressure Humidity
    00:00 +2°C° 0.1 mm 0 mps 652 mmHg 93%
    01:00 +2°C° 0.1 mm 0 mps 652 mmHg 94%
    02:00 +1°C° 0.1 mm 0 mps 651 mmHg 94%
    03:00 +1°C° 0.2 mm 0 mps 651 mmHg 95%
    04:00 +1°C° 0.2 mm 0 mps 651 mmHg 95%
    05:00 +1°C° 0.2 mm 0 mps 651 mmHg 96%
    06:00 +2°C° 0.4 mm 1 mps 651 mmHg 96%
    07:00 +2°C° 0.4 mm 1 mps 651 mmHg 96%
    08:00 +2°C° 0.4 mm 1 mps 651 mmHg 96%
    09:00 +2°C° 0.6 mm 1 mps 651 mmHg 95%
    10:00 +2°C° 0.6 mm 1 mps 651 mmHg 94%
    11:00 +2°C° 0.6 mm 1 mps 652 mmHg 93%
    12:00 +2°C° 0.3 mm 2 mps 652 mmHg 91%
    13:00 +2°C° 0.3 mm 2 mps 652 mmHg 88%
    14:00 +2°C° 0.3 mm 2 mps 652 mmHg 86%
    15:00 +2°C° 0.4 mm 2 mps 652 mmHg 87%
    16:00 +1°C° 0.4 mm 2 mps 652 mmHg 87%
    17:00 +1°C° 0.4 mm 2 mps 652 mmHg 88%
    18:00 +1°C° 0.2 mm 2 mps 652 mmHg 90%
    19:00 -1°C° 0.2 mm 2 mps 652 mmHg 91%
    20:00 -1°C° 0.2 mm 2 mps 652 mmHg 93%
    21:00 -2°C° 0.3 mm 2 mps 652 mmHg 92%
    22:00 -2°C° 0.3 mm 2 mps 652 mmHg 92%
    23:00 -2°C° 0.3 mm 2 mps 652 mmHg 92%

    Tomorrow, 21 February, Friday

    Time Temperature Precipitation Wind Pressure Humidity
    00:00 -3°C° 0.3 mm 2 mps 653 mmHg 91%
    01:00 -3°C° 0.3 mm 2 mps 653 mmHg 91%
    02:00 -3°C° 0.3 mm 2 mps 653 mmHg 90%
    03:00 -3°C° 0.2 mm 2 mps 653 mmHg 90%
    04:00 -4°C° 0.2 mm 2 mps 653 mmHg 90%
    05:00 -4°C° 0.2 mm 2 mps 653 mmHg 90%
    06:00 -4°C° 0.1 mm 2 mps 653 mmHg 89%
    07:00 -4°C° 0.1 mm 2 mps 654 mmHg 89%
    08:00 -4°C° 0.1 mm 2 mps 654 mmHg 88%
    15:00 +2°C° 0 mm 2 mps 656 mmHg 67%
    16:00 +3°C° 0 mm 1 mps 656 mmHg 69%
    17:00 +3°C° 0 mm 1 mps 656 mmHg 70%
    18:00 +1°C° 0 mm 1 mps 656 mmHg 76%
    19:00 0°C° 0 mm 1 mps 656 mmHg 81%
    20:00 -1°C° 0 mm 1 mps 656 mmHg 87%
    21:00 -2°C° 0 mm 1 mps 656 mmHg 86%
    22:00 -2°C° 0 mm 1 mps 656 mmHg 86%
    23:00 -2°C° 0 mm 1 mps 656 mmHg 85%

    Day after tomorrow, 22 February, Saturday

    Time Temperature Precipitation Wind Pressure Humidity
    00:00 -2°C° 0 mm 1 mps 656 mmHg 84%
    01:00 -3°C° 0 mm 1 mps 656 mmHg 83%
    02:00 -3°C° 0 mm 1 mps 656 mmHg 81%
    03:00 -3°C° 0 mm 1 mps 656 mmHg 81%
    04:00 -3°C° 0 mm 1 mps 655 mmHg 81%
    05:00 -3°C° 0 mm 1 mps 655 mmHg 80%
    06:00 -5°C° 0.1 mm 2 mps 656 mmHg 79%
    07:00 -5°C° 0.1 mm 2 mps 656 mmHg 78%
    08:00 -5°C° 0.1 mm 2 mps 656 mmHg 77%
    09:00 -5°C° 0.1 mm 3 mps 657 mmHg 73%
    10:00 -4°C° 0.1 mm 4 mps 657 mmHg 68%
    11:00 -3°C° 0.1 mm 4 mps 658 mmHg 64%
    12:00 -2°C° 0.1 mm 4 mps 658 mmHg 64%
    13:00 -2°C° 0.1 mm 4 mps 659 mmHg 64%
    14:00 -1°C° 0.1 mm 5 mps 659 mmHg 64%
    15:00 -2°C° 0.1 mm 4 mps 659 mmHg 67%
    16:00 -2°C° 0.1 mm 4 mps 659 mmHg 69%
    17:00 -2°C° 0.1 mm 3 mps 659 mmHg 72%
    18:00 -4°C° 0 mm 3 mps 659 mmHg 77%
    19:00 -4°C° 0 mm 2 mps 659 mmHg 83%
    20:00 -5°C° 0 mm 2 mps 659 mmHg 88%
    21:00 -5°C° 0 mm 2 mps 659 mmHg 87%
    22:00 -5°C° 0 mm 2 mps 659 mmHg 86%
    23:00 -5°C° 0 mm 2 mps 659 mmHg 85%

    23 February, Sunday

    Time Temperature Precipitation Wind Pressure Humidity
    00:00 -6°C° 0 mm 2 mps 659 mmHg 83%
    01:00 -4°C° 0 mm 1 mps 659 mmHg 80%
    02:00 -4°C° 0 mm 1 mps 659 mmHg 78%
    03:00 -4°C° 0 mm 1 mps 659 mmHg 75%
    04:00 -4°C° 0 mm 1 mps 659 mmHg 72%
    05:00 -4°C° 0 mm 1 mps 658 mmHg 70%
    06:00 -3°C° 0 mm 1 mps 659 mmHg 64%
    07:00 -2°C° 0 mm 1 mps 659 mmHg 59%
    08:00 -2°C° 0 mm 1 mps 659 mmHg 54%
    09:00 +1°C° 0 mm 1 mps 659 mmHg 50%
    10:00 +3°C° 0 mm 1 mps 660 mmHg 46%
    11:00 +5°C° 0 mm 1 mps 661 mmHg 41%
    12:00 +6°C° 0 mm 1 mps 660 mmHg 42%
    13:00 +6°C° 0 mm 2 mps 660 mmHg 42%
    14:00 +7°C° 0 mm 2 mps 660 mmHg 43%
    15:00 +7°C° 0 mm 1 mps 659 mmHg 49%
    16:00 +6°C° 0 mm 1 mps 658 mmHg 56%
    17:00 +6°C° 0 mm 1 mps 658 mmHg 62%
    18:00 +4°C° 0 mm 1 mps 657 mmHg 63%
    19:00 +3°C° 0 mm 1 mps 657 mmHg 63%
    20:00 +2°C° 0 mm 1 mps 657 mmHg 63%
    21:00 +2°C° 0 mm 1 mps 656 mmHg 60%
    22:00 +2°C° 0 mm 1 mps 656 mmHg 57%
    23:00 +3°C° 0 mm 1 mps 656 mmHg 54%

    24 February, Monday

    Time Temperature Precipitation Wind Pressure Humidity
    00:00 +2°C° 0 mm 2 mps 655 mmHg 53%
    01:00 +2°C° 0 mm 2 mps 655 mmHg 52%
    02:00 +2°C° 0 mm 2 mps 654 mmHg 52%
    03:00 +2°C° 0 mm 2 mps 654 mmHg 52%
    04:00 +2°C° 0 mm 2 mps 653 mmHg 53%
    05:00 +1°C° 0 mm 2 mps 652 mmHg 53%
    06:00 +2°C° 0 mm 2 mps 652 mmHg 53%
    07:00 +2°C° 0 mm 2 mps 652 mmHg 53%
    08:00 +3°C° 0 mm 2 mps 652 mmHg 53%
    09:00 +5°C° 0 mm 2 mps 653 mmHg 50%
    10:00 +7°C° 0 mm 3 mps 654 mmHg 46%
    11:00 +8°C° 0 mm 4 mps 655 mmHg 43%
    12:00 +8°C° 0 mm 4 mps 655 mmHg 48%
    13:00 +7°C° 0 mm 5 mps 655 mmHg 54%
    14:00 +6°C° 0 mm 5 mps 655 mmHg 59%
    15:00 +5°C° 0 mm 5 mps 655 mmHg 57%
    16:00 +3°C° 0 mm 5 mps 655 mmHg 56%
    17:00 +1°C° 0 mm 5 mps 655 mmHg 54%
    18:00 0°C° 0 mm 4 mps 655 mmHg 55%
    19:00 -2°C° 0 mm 4 mps 655 mmHg 56%
    20:00 -2°C° 0 mm 3 mps 656 mmHg 57%
    21:00 -3°C° 0 mm 2 mps 656 mmHg 58%
    22:00 -3°C° 0 mm 2 mps 656 mmHg 58%
    23:00 -4°C° 0 mm 2 mps 656 mmHg 59%

    25 February, Tuesday

    Time Temperature Precipitation Wind Pressure Humidity
    00:00 -4°C° 0 mm 2 mps 656 mmHg 57%
    01:00 -4°C° 0 mm 2 mps 656 mmHg 55%
    02:00 -5°C° 0 mm 2 mps 656 mmHg 53%
    03:00 -4°C° 0 mm 2 mps 656 mmHg 48%
    04:00 -2°C° 0 mm 1 mps 656 mmHg 43%
    05:00 -2°C° 0 mm 1 mps 656 mmHg 38%
    06:00 -2°C° 0 mm 1 mps 657 mmHg 37%
    07:00 -1°C° 0 mm 1 mps 657 mmHg 35%
    08:00 0°C° 0 mm 1 mps 657 mmHg 33%
    09:00 +1°C° 0 mm 1 mps 658 mmHg 32%
    10:00 +3°C° 0 mm 1 mps 658 mmHg 31%
    11:00 +5°C° 0 mm 1 mps 659 mmHg 29%
    12:00 +5°C° 0 mm 2 mps 659 mmHg 32%
    13:00 +5°C° 0 mm 2 mps 658 mmHg 34%
    14:00 +5°C° 0 mm 3 mps 658 mmHg 37%
    15:00 +5°C° 0 mm 2 mps 657 mmHg 43%
    16:00 +4°C° 0 mm 2 mps 657 mmHg 50%
    17:00 +3°C° 0 mm 2 mps 656 mmHg 56%
    18:00 +2°C° 0 mm 2 mps 656 mmHg 62%
    19:00 +1°C° 0 mm 1 mps 655 mmHg 69%
    20:00 0°C° 0 mm 1 mps 655 mmHg 75%
    21:00 0°C° 0 mm 1 mps 654 mmHg 73%
    22:00 0°C° 0 mm 1 mps 654 mmHg 71%
    23:00 0°C° 0 mm 1 mps 654 mmHg 70%
    Show more